Location: Hilton Head Island
(32.2163°N, 80.7526°W)
Time: 03:24:32
(UTC-04:00)

Tiros 1 despin weight - Pass Details

Date: 21 February 2026
Orbit: 556 x 593 km, 48.2° (Epoch: 9 March)

Event Time Altitude Azimuth Distance (km) Brightness Sun altitude
Rises 13:37:12 0° 245° (WSW) 2,753 ? 45.0°
Reaches altitude 10° 13:39:33 10° 252° (WSW) 1,853 ? 44.9°
Maximum altitude 13:43:36 44° 325° (NW) 776 ? 44.5°
Drops below altitude 10° 13:47:38 10° 39° (NE) 1,842 ? 44.2°
Sets 13:49:58 0° 46° (NE) 2,735 ? 44.0°
